DMSP 5D-2 F13 DEB, 40407

Orbit data source: Space-Track

DMSP 5D-2 F13 DEB, 40407 is space debris in SSO originally from a launch on Fri, 24 Mar 1995 UTC launched from the Air Force Western Test Range (AFWTR). Debris objects in space refer to the collection of defunct objects orbiting the Earth. Examples of debris include non-operational satellites, rocket bodies, and fragments generated from explosions, collisions, or faulty payload assembly.

Loading next visibility...
Identifier
40407, 1995-015U
Orbit
SSO
Country
Flag of USUS
Related business
Manufacturer
Unknown
Mission
Spacecraft
Bus & Motor
Unknown
Mass
Unknown
Launch date (UTC)
1995-03-24 (31 years ago)
Launch vehicle
Unknown
Launch site
Air Force Western Test Range (AFWTR)
Object type
Payload
Rocket body
Debris
Shape & HBR
Unknown shape, 0.1 m
Radar Cross Section
Small (<0.1 m²)

Expand to show TLE details & history
Last TLE update: 11 hours ago

TLE from 11 hours ago
0 DMSP 5D-2 F13 DEB
1 40407U 95015U   25289.08179426  .00000444  00000-0  24059-3 0  9993
2 40407  98.8124 300.9695 0007067 126.0657 234.1174 14.17480065549936
Epoch: 2025-10-16T01:57Z
TLE epoch observation values (Epoch: 2025-10-16T01:57:47.024Z)
Latitude
0.00007°
Longitude
-113.32308°
Altitude
839.786 km
Speed
7.431 km/s
True Right ascension
20h 03m 52s
True Declination
0° 00' 00"
Sunlit
Object was in daylight at epoch
Visualization orbit readout
Latitude
Unknown
Longitude
Unknown
Altitude
Unknown
Speed
Unknown
Apparent Right ascension
Unknown
Apparent Declination
Unknown
Sunlit
N/A
Visualization observer readout
Local Sidereal Time
07:49:40
Azimuth
Unknown
Elevation
Unknown
Doppler factor
Unknown
Orbital elements
Apogee altitude
836.149 km
Perigee altitude
825.96 km
Semi-major axis
7,209.192 km
Eccentricity
0.00071
Inclination
98.8124°
RAAN
300.9695°
Arg. of periapsis
126.0657°
True anomaly
234.05182°
Mean anomaly
234.1174°
Eccentric anomaly
234.08461°
Mean motion
3.54579 °/min
Orbital period
101.53 mins
BSTAR
0.00024059

Documentation

Showing up to 5 results
|